FW6082 Weather Reports


time (UTC)temp
C
wind
direction
speed
KPH
gust
KPH
rain 1hr
cm
rain 24hr
cm
rain mn
cm
humidity
%
barometer
mb
20260905093022 8 5 0.0 0.0 0.00 0.00 0.00 45 1012.5
20260905091519 10 5 0.0 0.0 0.00 0.00 0.00 41 1012.4
20260905090019 10 5 0.0 0.0 0.00 0.00 0.00 39 1012.4
20260905084517 10 5 0.0 1.6 0.00 0.00 0.00 36 1012.4
20260905083018 10 5 0.0 0.0 0.00 0.00 0.00 38 1012.4
20260905081519 10 5 0.0 3.2 0.00 0.00 0.00 38 1012.5
20260905080026 8 5 0.0 0.0 0.00 0.00 0.00 43 1012.5
20260905074514 8 5 0.0 0.0 0.00 0.00 0.00 45 1012.6
20260905073020 9 5 0.0 0.0 0.00 0.00 0.00 44 1012.8
20260905071510 8 5 0.0 1.6 0.00 0.00 0.00 42 1012.9
20260905070008 9 5 0.0 0.0 0.00 0.00 0.00 47 1012.8
20260905064504 10 5 0.0 0.0 0.00 0.00 0.00 43 1012.9
20260905063003 10 5 0.0 1.6 0.00 0.00 0.00 45 1012.9
20260905061603 10 5 0.0 0.0 0.00 0.00 0.00 44 1013.1
20260905060107 10 5 0.0 0.0 0.00 0.00 0.00 40 1013.1
20260905054609 10 5 0.0 0.0 0.00 0.00 0.00 44 1013.3
20260905053109 10 5 0.0 0.0 0.00 0.00 0.00 46 1013.3
20260905051557 10 5 0.0 0.0 0.00 0.00 0.00 44 1013.4
20260905050054 11 5 0.0 0.0 0.00 0.00 0.00 41 1013.5
20260905044602 11 5 0.0 0.0 0.00 0.00 0.00 38 1013.3
20260905043106 10 5 0.0 0.0 0.00 0.00 0.00 42 1013.4
20260905041547 11 5 0.0 0.0 0.00 0.00 0.00 44 1013.6
20260905040049 11 5 0.0 0.0 0.00 0.00 0.00 41 1013.6
20260905034543 11 5 0.0 0.0 0.00 0.00 0.00 44 1013.7
20260905033041 11 5 0.0 1.6 0.00 0.00 0.00 42 1013.9
20260905031543 10 5 0.0 0.0 0.00 0.00 0.00 51 1013.9
20260905030047 10 5 0.0 0.0 0.00 0.00 0.00 46 1013.9
20260905024540 11 5 0.0 0.0 0.00 0.00 0.00 47 1014.0
20260905023040 11 5 0.0 0.0 0.00 0.00 0.00 47 1013.9
20260905021545 12 5 0.0 0.0 0.00 0.00 0.00 43 1014.0
20260905020048 13 5 0.0 0.0 0.00 0.00 0.00 43 1014.1
20260905014538 12 5 0.0 0.0 0.00 0.00 0.00 43 1014.0
20260905013037 12 5 0.0 0.0 0.00 0.00 0.00 45 1014.0
20260905011553 13 5 0.0 0.0 0.00 0.00 0.00 43 1013.9
20260905010039 15 5 0.0 0.0 0.00 0.00 0.00 40 1014.0
20260905004536 15 5 0.0 0.0 0.00 0.00 0.00 37 1013.9
20260905003045 16 22 0.0 0.0 0.00 0.00 0.00 36 1013.8
20260905001537 17 22 0.0 1.6 0.00 0.00 0.00 34 1013.8
20260905000038 18 22 0.0 0.0 0.00 0.00 0.00 33 1013.5
20260904234535 18 355 0.0 6.4 0.00 0.00 0.00 31 1013.4
20260904233049 18 330 3.2 9.7 0.00 0.00 0.00 30 1013.0
20260904231631 19 334 4.8 11.3 0.00 0.00 0.00 28 1012.8
20260904230039 19 278 0.0 6.4 0.00 0.00 0.00 28 1012.7
20260904224530 20 170 0.0 11.3 0.00 0.00 0.00 22 1012.7
20260904223034 20 286 4.8 11.3 0.00 0.00 0.00 22 1012.4
20260904221530 21 300 9.7 19.3 0.00 0.00 0.00 22 1012.4
20260904220028 21 295 0.0 14.5 0.00 0.00 0.00 23 1012.2
20260904214530 21 303 3.2 12.9 0.00 0.00 0.00 21 1012.0
20260904213027 21 290 6.4 14.5 0.00 0.00 0.00 20 1012.0
20260904211525 22 298 6.4 12.9 0.00 0.00 0.00 19 1011.9
20260904210027 23 235 3.2 11.3 0.00 0.00 0.00 18 1011.7
20260904204530 24 241 1.6 6.4 0.00 0.00 0.00 18 1011.5
20260904203125 24 248 3.2 20.9 0.00 0.00 0.00 17 1011.4
20260904201523 24 231 4.8 11.3 0.00 0.00 0.00 17 1011.4
20260904200028 24 226 4.8 16.1 0.00 0.00 0.00 17 1011.4
20260904194525 24 228 6.4 14.5 0.00 0.00 0.00 17 1011.4
20260904193024 25 256 4.8 11.3 0.00 0.00 0.00 17 1011.5
20260904191524 25 244 6.4 14.5 0.00 0.00 0.00 17 1011.6
20260904190020 25 231 4.8 11.3 0.00 0.00 0.00 18 1011.7
20260904184519 25 214 6.4 16.1 0.00 0.00 0.00 17 1011.7
20260904183016 25 269 4.8 16.1 0.00 0.00 0.00 20 1011.7
20260904181515 25 259 6.4 14.5 0.00 0.00 0.00 18 1011.7
20260904180014 25 220 6.4 14.5 0.00 0.00 0.00 17 1012.1
20260904174523 25 234 6.4 16.1 0.00 0.00 0.00 18 1012.4
20260904173010 24 244 6.4 16.1 0.00 0.00 0.00 18 1012.4
20260904171511 24 214 6.4 16.1 0.00 0.00 0.00 20 1012.8
20260904170004 24 238 4.8 14.5 0.00 0.00 0.00 19 1012.8
20260904164502 25 195 3.2 9.7 0.00 0.00 0.00 21 1012.8
20260904163058 25 213 3.2 9.7 0.00 0.00 0.00 20 1013.0
20260904161554 25 313 0.0 3.2 0.00 0.00 0.00 18 1013.3
20260904160050 24 180 0.0 3.2 0.00 0.00 0.00 22 1013.6
20260904154547 23 82 0.0 3.2 0.00 0.00 0.00 20 1014.0
20260904153049 23 153 1.6 4.8 0.00 0.00 0.00 21 1014.2
20260904151540 22 90 3.2 11.3 0.00 0.00 0.00 22 1014.6
20260904150040 21 105 3.2 9.7 0.00 0.00 0.00 24 1014.8
20260904144529 21 102 4.8 11.3 0.00 0.00 0.00 26 1015.0
20260904143032 20 108 0.0 8.0 0.00 0.00 0.00 28 1015.3
20260904141527 19 101 3.2 8.0 0.00 0.00 0.00 29 1015.5
20260904140020 18 106 1.6 4.8 0.00 0.00 0.00 31 1015.6